QPF
0.00 0.00 0.00 0.00 0.00 0.00 0.00 0.00 0.00 0.00 0.00 0.00 0.00 0.00 0.00 0.00 0.00 0.00 0.00 0.00 0.00 0.00 0.00 0.00 0.00 0.00 0.00 0.00 0.00 0.00 0.00 0.00 0.00 0.00 0.00 0.00 0.00 0.00 0.00 0.00 0.00 0.01 0.02 0.02
0.00 0.00 0.00 0.00 0.00 0.00 0.00 0.00 0.00 0.00 0.00 0.00 0.00 0.00 0.00 0.00 0.00 0.00 0.00 0.00 0.00 0.00 0.00 0.00 0.00 0.00 0.00 0.00 0.00 0.00 0.00 0.00 0.00 0.00 0.00 0.00 0.00 0.00 0.00 0.00 0.00 0.00 0.01 0.01
0.00 0.00 0.00 0.00 0.00 0.00 0.00 0.00 0.00 0.00 0.00 0.00 0.00 0.00 0.00 0.00 0.00 0.00 0.00 0.00 0.00 0.00 0.00 0.00 0.00 0.00 0.00 0.00 0.00 0.00 0.00 0.00 0.00 0.00 0.00 0.00 0.00 0.00 0.00 0.00 0.00 0.00 0.00 0.01
0.00 0.00 0.00 0.00 0.00 0.00 0.00 0.00 0.00 0.00 0.00 0.00 0.00 0.00 0.00 0.00 0.00 0.00 0.00 0.00 0.00 0.00 0.00 0.00 0.00 0.00 0.00 0.00 0.00 0.00 0.00 0.00 0.00 0.00 0.00 0.00 0.00 0.00 0.00 0.00 0.00 0.00 0.00 0.00
0.00 0.00 0.00 0.00 0.00 0.00 0.00 0.00 0.00 0.00 0.00 0.00 0.00 0.00 0.00 0.00 0.00 0.00 0.00 0.00 0.00 0.00 0.00 0.00 0.00 0.00 0.00 0.00 0.00 0.00 0.00 0.00 0.00 0.00 0.00 0.00 0.00 0.00 0.00 0.00 0.00 0.00 0.00 0.00
0.00 0.00 0.00 0.00 0.00 0.00 0.00 0.00 0.00 0.00 0.00 0.00 0.00 0.00 0.00 0.00 0.00 0.00 0.00 0.00 0.00 0.00 0.00 0.00 0.00 0.00 0.00 0.00 0.00 0.00 0.00 0.00 0.00 0.00 0.00 0.00 0.00 0.00 0.00 0.00 0.00 0.00 0.00 0.00
0.00 0.00 0.00 0.00 0.00 0.00 0.00 0.00 0.00 0.00 0.00 0.00 0.00 0.00 0.00 0.00 0.00 0.00 0.00 0.00 0.00 0.00 0.00 0.00 0.00 0.00 0.00 0.00 0.00 0.00 0.00 0.00 0.00 0.00 0.00 0.00 0.00 0.00 0.00 0.00 0.00 0.00 0.00 0.00
0.00 0.00 0.00 0.00 0.00 0.00 0.00 0.00 0.00 0.00 0.00 0.00 0.00 0.00 0.00 0.00 0.00 0.00 0.00 0.00 0.00 0.00 0.00 0.00 0.00 0.00 0.00 0.00 0.00 0.00 0.00 0.00 0.00 0.00 0.00 0.00 0.00 0.00 0.00 0.00 0.00 0.00 0.00 0.00
0.00 0.00 0.00 0.00 0.00 0.00 0.00 0.00 0.00 0.00 0.00 0.00 0.00 0.00 0.00 0.00 0.00 0.00 0.00 0.00 0.00 0.00 0.00 0.00 0.00 0.00 0.00 0.00 0.00 0.00 0.00 0.00 0.00 0.00 0.00 0.00 0.00 0.00 0.00 0.00 0.00 0.00 0.00 0.00
0.00 0.00 0.00 0.00 0.00 0.00 0.00 0.00 0.00 0.00 0.00 0.00 0.00 0.00 0.00 0.00 0.00 0.00 0.00 0.00 0.00 0.00 0.00 0.00 0.00 0.00 0.00 0.00 0.00 0.00 0.00 0.00 0.00 0.00 0.00 0.00 0.00 0.00 0.00 0.00 0.00 0.00 0.00 0.00
0.00 0.00 0.00 0.00 0.00 0.00 0.00 0.00 0.00 0.00 0.00 0.00 0.00 0.00 0.00 0.00 0.00 0.00 0.00 0.00 0.00 0.00 0.00 0.00 0.00 0.00 0.00 0.00 0.00 0.00 0.00 0.00 0.00 0.00 0.00 0.00 0.00 0.00 0.00 0.00 0.00 0.00 0.00 0.00
0.00 0.00 0.00 0.00 0.00 0.00 0.00 0.00 0.00 0.00 0.00 0.00 0.00 0.00 0.00 0.00 0.00 0.00 0.00 0.00 0.00 0.00 0.00 0.00 0.00 0.00 0.00 0.00 0.00 0.00 0.00 0.00 0.00 0.00 0.00 0.00 0.00 0.00 0.00 0.00 0.00 0.00 0.00 0.00
0.00 0.00 0.00 0.00 0.00 0.00 0.00 0.00 0.00 0.00 0.00 0.00 0.00 0.00 0.00 0.00 0.00 0.00 0.00 0.00 0.00 0.00 0.00 0.00 0.00 0.00 0.00 0.00 0.00 0.00 0.00 0.00 0.00 0.00 0.00 0.00 0.00 0.00 0.00 0.00 0.00 0.00 0.00 0.00
0.00 0.00 0.00 0.00 0.00 0.00 0.00 0.00 0.00 0.00 0.00 0.00 0.00 0.00 0.00 0.00 0.00 0.00 0.00 0.00 0.00 0.00 0.00 0.00 0.00 0.00 0.00 0.00 0.00 0.00 0.00 0.00 0.00 0.00 0.00 0.00 0.00 0.00 0.00 0.00 0.00 0.00 0.00 0.00
0.00 0.00 0.00 0.00 0.00 0.00 0.00 0.00 0.00 0.00 0.00 0.00 0.00 0.00 0.00 0.00 0.00 0.00 0.00 0.00 0.00 0.00 0.00 0.00 0.00 0.00 0.00 0.00 0.00 0.00 0.00 0.00 0.00 0.00 0.00 0.00 0.00 0.00 0.00 0.00 0.00 0.00 0.00 0.00
0.00 0.00 0.00 0.00 0.00 0.00 0.00 0.00 0.00 0.00 0.00 0.00 0.00 0.00 0.00 0.00 0.00 0.00 0.00 0.00 0.00 0.00 0.00 0.00 0.00 0.00 0.00 0.00 0.00 0.00 0.00 0.00 0.00 0.00 0.00 0.00 0.00 0.00 0.00 0.00 0.00 0.00 0.00 0.00
0.00 0.00 0.00 0.00 0.00 0.00 0.00 0.00 0.00 0.00 0.00 0.00 0.00 0.00 0.00 0.00 0.00 0.00 0.00 0.00 0.00 0.00 0.00 0.00 0.00 0.00 0.00 0.00 0.00 0.00 0.00 0.00 0.00 0.00 0.00 0.00 0.00 0.00 0.00 0.00 0.00 0.00 0.00 0.00
0.00 0.00 0.00 0.00 0.00 0.00 0.00 0.00 0.00 0.00 0.00 0.00 0.00 0.00 0.00 0.00 0.00 0.00 0.00 0.00 0.00 0.00 0.00 0.00 0.00 0.00 0.00 0.00 0.00 0.00 0.00 0.00 0.00 0.00 0.00 0.00 0.00 0.00 0.00 0.00 0.00 0.00 0.00 0.00
0.00 0.00 0.00 0.00 0.00 0.00 0.00 0.00 0.00 0.00 0.00 0.00 0.00 0.00 0.00 0.00 0.00 0.00 0.00 0.00 0.00 0.00 0.00 0.00 0.00 0.00 0.00 0.00 0.00 0.00 0.00 0.00 0.00 0.00 0.00 0.00 0.00 0.00 0.00 0.00 0.00 0.00 0.00 0.00
0.00 0.00 0.00 0.00 0.00 0.00 0.00 0.00 0.00 0.00 0.00 0.00 0.00 0.00 0.00 0.00 0.00 0.00 0.00 0.00 0.00 0.00 0.00 0.00 0.00 0.00 0.00 0.00 0.00 0.00 0.00 0.00 0.00 0.00 0.00 0.00 0.00 0.00 0.00 0.00 0.00 0.00 0.00 0.00
0.00 0.00 0.00 0.00 0.00 0.00 0.00 0.00 0.00 0.00 0.00 0.00 0.00 0.00 0.00 0.00 0.00 0.00 0.00 0.00 0.00 0.00 0.00 0.00 0.00 0.00 0.00 0.00 0.00 0.00 0.00 0.00 0.00 0.00 0.00 0.00 0.00 0.00 0.00 0.00 0.00 0.00 0.00 0.00
0.00 0.00 0.00 0.00 0.00 0.00 0.00 0.00 0.00 0.00 0.00 0.00 0.00 0.00 0.00 0.00 0.00 0.00 0.00 0.00 0.00 0.00 0.00 0.00 0.00 0.00 0.00 0.00 0.00 0.00 0.00 0.00 0.00 0.00 0.00 0.00 0.00 0.00 0.00 0.00 0.00 0.00 0.00 0.00
0.01 0.00 0.00 0.00 0.00 0.00 0.00 0.00 0.00 0.00 0.00 0.00 0.00 0.00 0.00 0.00 0.00 0.00 0.00 0.00 0.00 0.00 0.00 0.00 0.00 0.00 0.00 0.00 0.00 0.00 0.00 0.00 0.00 0.00 0.00 0.00 0.00 0.00 0.00 0.00 0.00 0.00 0.00 0.00
0.01 0.01 0.01 0.01 0.01 0.00 0.00 0.00 0.00 0.00 0.00 0.00 0.00 0.00 0.00 0.00 0.00 0.00 0.00 0.00 0.00 0.00 0.00 0.00 0.00 0.00 0.00 0.00 0.00 0.00 0.00 0.00 0.00 0.00 0.00 0.00 0.00 0.00 0.00 0.00 0.00 0.00 0.00 0.00
0.01 0.01 0.01 0.01 0.01 0.01 0.00 0.00 0.00 0.00 0.00 0.00 0.00 0.00 0.00 0.00 0.00 0.00 0.00 0.00 0.00 0.00 0.00 0.00 0.00 0.00 0.00 0.00 0.00 0.00 0.00 0.00 0.00 0.00 0.00 0.00 0.00 0.00 0.00 0.00 0.00 0.00 0.00 0.00
0.01 0.01 0.01 0.01 0.01 0.01 0.01 0.01 0.00 0.00 0.00 0.00 0.00 0.00 0.00 0.00 0.00 0.00 0.00 0.00 0.00 0.00 0.00 0.00 0.00 0.00 0.00 0.00 0.00 0.00 0.00 0.00 0.00 0.00 0.00 0.00 0.00 0.00 0.00 0.00 0.00 0.00 0.00 0.00
0.01 0.01 0.01 0.01 0.01 0.01 0.01 0.01 0.01 0.00 0.00 0.00 0.00 0.00 0.00 0.00 0.00 0.00 0.00 0.00 0.00 0.00 0.00 0.00 0.00 0.00 0.00 0.00 0.00 0.00 0.00 0.00 0.00 0.00 0.00 0.00 0.00 0.00 0.00 0.00 0.00 0.00 0.00 0.00
MSLP
1014.18 1014.59 1015.00 1015.36 1015.63 1015.77 1015.77 1015.59 1015.26 1014.79 1014.23 1013.64 1013.09 1012.61 1012.26 1012.05 1011.97 1012.01 1012.14 1012.32 1012.51 1012.69 1012.86 1013.00 1013.12 1013.25 1013.38 1013.53 1013.69 1013.85 1014.00 1014.13 1014.22 1014.26 1014.26 1014.23 1014.17 1014.11 1014.05 1013.99 1013.94 1013.89 1013.82 1013.72
1014.27 1014.57 1014.79 1014.92 1014.93 1014.82 1014.60 1014.26 1013.85 1013.39 1012.92 1012.48 1012.11 1011.83 1011.66 1011.58 1011.59 1011.66 1011.76 1011.89 1012.01 1012.13 1012.25 1012.37 1012.51 1012.68 1012.88 1013.11 1013.35 1013.59 1013.80 1013.98 1014.10 1014.17 1014.19 1014.17 1014.13 1014.07 1014.02 1013.96 1013.91 1013.85 1013.78 1013.68
1014.38 1014.53 1014.56 1014.45 1014.22 1013.88 1013.45 1012.98 1012.51 1012.06 1011.68 1011.37 1011.18 1011.07 1011.05 1011.10 1011.18 1011.27 1011.37 1011.44 1011.51 1011.57 1011.65 1011.76 1011.92 1012.12 1012.38 1012.68 1012.99 1013.30 1013.57 1013.80 1013.96 1014.06 1014.10 1014.10 1014.07 1014.02 1013.97 1013.92 1013.86 1013.79 1013.70 1013.58
1014.48 1014.46 1014.29 1013.96 1013.51 1012.96 1012.38 1011.80 1011.28 1010.85 1010.54 1010.36 1010.30 1010.34 1010.44 1010.59 1010.73 1010.85 1010.94 1010.99 1011.02 1011.05 1011.10 1011.21 1011.38 1011.62 1011.92 1012.27 1012.64 1012.99 1013.31 1013.57 1013.76 1013.89 1013.95 1013.97 1013.95 1013.92 1013.88 1013.82 1013.75 1013.67 1013.55 1013.41
1014.52 1014.31 1013.94 1013.41 1012.77 1012.07 1011.37 1010.72 1010.17 1009.77 1009.52 1009.43 1009.48 1009.63 1009.84 1010.05 1010.25 1010.40 1010.49 1010.53 1010.55 1010.57 1010.63 1010.74 1010.92 1011.19 1011.52 1011.90 1012.29 1012.67 1013.00 1013.28 1013.49 1013.63 1013.71 1013.74 1013.74 1013.72 1013.68 1013.63 1013.55 1013.44 1013.30 1013.13
1014.39 1014.00 1013.44 1012.76 1011.98 1011.18 1010.40 1009.72 1009.18 1008.81 1008.62 1008.61 1008.74 1008.96 1009.24 1009.51 1009.75 1009.93 1010.04 1010.10 1010.13 1010.16 1010.23 1010.36 1010.57 1010.85 1011.20 1011.58 1011.97 1012.34 1012.67 1012.93 1013.14 1013.28 1013.36 1013.41 1013.42 1013.41 1013.37 1013.31 1013.22 1013.09 1012.92 1012.71
1014.01 1013.44 1012.75 1011.95 1011.09 1010.24 1009.45 1008.79 1008.28 1007.97 1007.84 1007.89 1008.08 1008.36 1008.68 1008.99 1009.26 1009.46 1009.60 1009.69 1009.76 1009.82 1009.93 1010.08 1010.31 1010.60 1010.94 1011.30 1011.67 1012.00 1012.30 1012.53 1012.71 1012.84 1012.92 1012.96 1012.98 1012.97 1012.94 1012.88 1012.77 1012.62 1012.42 1012.18
1013.30 1012.60 1011.81 1010.96 1010.08 1009.25 1008.51 1007.90 1007.47 1007.23 1007.17 1007.28 1007.51 1007.83 1008.18 1008.51 1008.80 1009.04 1009.21 1009.34 1009.45 1009.56 1009.71 1009.90 1010.14 1010.42 1010.74 1011.07 1011.39 1011.67 1011.91 1012.10 1012.24 1012.34 1012.40 1012.44 1012.47 1012.46 1012.43 1012.36 1012.24 1012.07 1011.84 1011.58
1012.27 1011.48 1010.65 1009.79 1008.96 1008.20 1007.56 1007.06 1006.73 1006.58 1006.60 1006.77 1007.05 1007.39 1007.76 1008.10 1008.42 1008.68 1008.89 1009.06 1009.22 1009.38 1009.57 1009.79 1010.04 1010.32 1010.60 1010.89 1011.15 1011.36 1011.54 1011.67 1011.77 1011.84 1011.88 1011.92 1011.94 1011.94 1011.91 1011.84 1011.71 1011.52 1011.27 1010.98
1010.98 1010.16 1009.33 1008.52 1007.78 1007.13 1006.62 1006.25 1006.05 1006.02 1006.13 1006.36 1006.68 1007.04 1007.42 1007.79 1008.11 1008.40 1008.65 1008.87 1009.07 1009.28 1009.51 1009.75 1010.00 1010.27 1010.52 1010.76 1010.95 1011.11 1011.22 1011.30 1011.35 1011.39 1011.43 1011.46 1011.48 1011.49 1011.47 1011.39 1011.26 1011.06 1010.80 1010.49
1009.58 1008.75 1007.96 1007.22 1006.59 1006.08 1005.71 1005.49 1005.43 1005.51 1005.71 1006.01 1006.38 1006.77 1007.17 1007.55 1007.90 1008.21 1008.50 1008.76 1009.01 1009.27 1009.52 1009.79 1010.04 1010.29 1010.51 1010.69 1010.83 1010.93 1011.00 1011.03 1011.06 1011.08 1011.11 1011.14 1011.18 1011.20 1011.19 1011.12 1010.99 1010.79 1010.52 1010.20
1008.21 1007.40 1006.66 1006.00 1005.47 1005.09 1004.85 1004.77 1004.83 1005.02 1005.32 1005.69 1006.11 1006.54 1006.97 1007.38 1007.76 1008.11 1008.44 1008.75 1009.05 1009.34 1009.62 1009.90 1010.16 1010.39 1010.58 1010.72 1010.82 1010.88 1010.91 1010.92 1010.94 1010.96 1010.99 1011.04 1011.10 1011.13 1011.14 1011.08 1010.96 1010.77 1010.50 1010.18
1007.04 1006.25 1005.53 1004.94 1004.49 1004.20 1004.06 1004.08 1004.25 1004.53 1004.91 1005.35 1005.83 1006.31 1006.79 1007.25 1007.68 1008.08 1008.46 1008.82 1009.16 1009.49 1009.81 1010.10 1010.36 1010.57 1010.75 1010.87 1010.94 1010.98 1010.99 1011.00 1011.02 1011.05 1011.10 1011.18 1011.25 1011.31 1011.34 1011.30 1011.20 1011.01 1010.76 1010.45
1006.17 1005.36 1004.66 1004.08 1003.67 1003.42 1003.35 1003.43 1003.66 1004.01 1004.46 1004.96 1005.51 1006.06 1006.60 1007.13 1007.63 1008.10 1008.54 1008.96 1009.35 1009.72 1010.06 1010.37 1010.63 1010.85 1011.01 1011.12 1011.18 1011.22 1011.24 1011.26 1011.29 1011.35 1011.43 1011.53 1011.63 1011.72 1011.76 1011.75 1011.66 1011.49 1011.25 1010.96
1005.63 1004.80 1004.06 1003.47 1003.03 1002.78 1002.72 1002.82 1003.08 1003.47 1003.96 1004.53 1005.14 1005.77 1006.40 1007.01 1007.60 1008.15 1008.67 1009.15 1009.60 1010.01 1010.38 1010.70 1010.97 1011.19 1011.35 1011.46 1011.53 1011.58 1011.62 1011.66 1011.72 1011.81 1011.92 1012.04 1012.17 1012.27 1012.34 1012.34 1012.27 1012.12 1011.91 1011.64
1005.41 1004.52 1003.73 1003.08 1002.59 1002.29 1002.19 1002.27 1002.53 1002.93 1003.46 1004.08 1004.76 1005.48 1006.19 1006.90 1007.58 1008.22 1008.82 1009.38 1009.88 1010.33 1010.73 1011.07 1011.35 1011.57 1011.74 1011.86 1011.95 1012.02 1012.08 1012.15 1012.24 1012.36 1012.50 1012.64 1012.78 1012.90 1012.97 1012.98 1012.93 1012.80 1012.60 1012.36
1005.44 1004.50 1003.63 1002.90 1002.33 1001.96 1001.79 1001.83 1002.06 1002.46 1003.01 1003.67 1004.41 1005.20 1006.01 1006.81 1007.59 1008.32 1009.00 1009.61 1010.17 1010.65 1011.07 1011.42 1011.71 1011.94 1012.12 1012.25 1012.36 1012.46 1012.55 1012.66 1012.78 1012.92 1013.07 1013.23 1013.38 1013.49 1013.57 1013.58 1013.53 1013.41 1013.24 1013.01
1005.67 1004.67 1003.74 1002.92 1002.28 1001.82 1001.58 1001.55 1001.74 1002.12 1002.67 1003.36 1004.15 1005.01 1005.89 1006.77 1007.63 1008.43 1009.17 1009.84 1010.43 1010.93 1011.36 1011.72 1012.01 1012.25 1012.44 1012.59 1012.72 1012.84 1012.97 1013.10 1013.25 1013.41 1013.57 1013.73 1013.87 1013.98 1014.04 1014.05 1014.00 1013.89 1013.73 1013.53
1006.01 1004.98 1004.01 1003.13 1002.42 1001.89 1001.58 1001.49 1001.63 1001.98 1002.52 1003.22 1004.04 1004.93 1005.87 1006.80 1007.70 1008.55 1009.33 1010.02 1010.62 1011.14 1011.57 1011.92 1012.21 1012.45 1012.64 1012.81 1012.97 1013.12 1013.27 1013.43 1013.60 1013.77 1013.93 1014.08 1014.21 1014.31 1014.35 1014.35 1014.29 1014.19 1014.04 1013.85
1006.43 1005.40 1004.41 1003.51 1002.75 1002.17 1001.81 1001.67 1001.76 1002.08 1002.60 1003.28 1004.10 1005.00 1005.95 1006.90 1007.82 1008.68 1009.46 1010.15 1010.74 1011.24 1011.66 1012.00 1012.28 1012.52 1012.72 1012.91 1013.08 1013.26 1013.43 1013.61 1013.80 1013.97 1014.14 1014.28 1014.40 1014.47 1014.50 1014.48 1014.42 1014.32 1014.17 1014.01
1006.87 1005.88 1004.91 1004.02 1003.26 1002.66 1002.26 1002.08 1002.14 1002.41 1002.88 1003.53 1004.32 1005.20 1006.12 1007.05 1007.95 1008.78 1009.54 1010.20 1010.77 1011.24 1011.64 1011.96 1012.23 1012.47 1012.68 1012.88 1013.07 1013.27 1013.47 1013.67 1013.86 1014.05 1014.21 1014.35 1014.45 1014.51 1014.52 1014.50 1014.43 1014.33 1014.19 1014.04
1007.30 1006.39 1005.48 1004.63 1003.88 1003.29 1002.88 1002.68 1002.69 1002.92 1003.34 1003.94 1004.67 1005.49 1006.36 1007.23 1008.08 1008.86 1009.57 1010.19 1010.72 1011.16 1011.52 1011.83 1012.09 1012.32 1012.54 1012.75 1012.97 1013.19 1013.41 1013.62 1013.83 1014.02 1014.19 1014.32 1014.41 1014.47 1014.48 1014.45 1014.38 1014.28 1014.16 1014.01
1007.69 1006.87 1006.04 1005.26 1004.56 1003.99 1003.59 1003.37 1003.35 1003.53 1003.90 1004.42 1005.08 1005.82 1006.61 1007.41 1008.19 1008.91 1009.55 1010.12 1010.60 1011.01 1011.35 1011.64 1011.90 1012.13 1012.36 1012.59 1012.83 1013.06 1013.30 1013.54 1013.76 1013.96 1014.12 1014.26 1014.35 1014.40 1014.41 1014.39 1014.33 1014.24 1014.13 1013.99
1007.99 1007.26 1006.53 1005.82 1005.19 1004.66 1004.28 1004.06 1004.02 1004.15 1004.46 1004.91 1005.49 1006.14 1006.85 1007.56 1008.26 1008.91 1009.50 1010.01 1010.46 1010.84 1011.16 1011.45 1011.71 1011.96 1012.20 1012.45 1012.70 1012.95 1013.21 1013.45 1013.68 1013.89 1014.06 1014.20 1014.30 1014.36 1014.38 1014.36 1014.32 1014.24 1014.13 1014.00
1008.12 1007.50 1006.87 1006.25 1005.69 1005.22 1004.86 1004.65 1004.60 1004.70 1004.95 1005.33 1005.83 1006.41 1007.03 1007.66 1008.29 1008.88 1009.41 1009.89 1010.31 1010.68 1011.00 1011.30 1011.57 1011.83 1012.09 1012.35 1012.62 1012.89 1013.15 1013.40 1013.64 1013.85 1014.03 1014.17 1014.27 1014.34 1014.37 1014.37 1014.34 1014.27 1014.17 1014.04
1008.05 1007.53 1007.00 1006.47 1005.99 1005.58 1005.27 1005.08 1005.03 1005.11 1005.32 1005.65 1006.08 1006.59 1007.14 1007.71 1008.28 1008.82 1009.32 1009.78 1010.19 1010.56 1010.89 1011.20 1011.48 1011.76 1012.04 1012.32 1012.60 1012.87 1013.14 1013.39 1013.63 1013.84 1014.01 1014.16 1014.27 1014.34 1014.38 1014.39 1014.36 1014.30 1014.20 1014.06
1007.75 1007.32 1006.89 1006.46 1006.06 1005.73 1005.48 1005.32 1005.28 1005.36 1005.55 1005.85 1006.24 1006.69 1007.19 1007.71 1008.24 1008.75 1009.23 1009.68 1010.10 1010.48 1010.82 1011.15 1011.45 1011.75 1012.04 1012.33 1012.61 1012.89 1013.15 1013.40 1013.63 1013.83 1014.00 1014.14 1014.25 1014.33 1014.37 1014.38 1014.35 1014.29 1014.18 1014.03
Thickness
5718 5725 5726 5726 5727 5726 5717 5708 5702 5713 5721 5733 5739 5741 5743 5742 5740 5738 5735 5733 5730 5726 5722 5719 5715 5711 5707 5704 5700 5696 5691 5686 5682 5679 5676 5672 5669 5666 5664 5661 5659 5656 5654 5653
5719 5728 5728 5726 5729 5727 5726 5724 5720 5724 5728 5745 5748 5746 5743 5743 5741 5739 5737 5736 5733 5730 5725 5720 5717 5712 5708 5705 5701 5697 5692 5688 5684 5680 5677 5673 5670 5667 5664 5662 5659 5657 5655 5653
5700 5715 5720 5712 5729 5730 5730 5735 5731 5724 5734 5746 5743 5743 5744 5743 5743 5741 5740 5739 5735 5731 5727 5723 5719 5715 5710 5706 5702 5697 5693 5688 5685 5681 5677 5674 5671 5667 5664 5662 5659 5657 5655 5653
5694 5704 5696 5721 5747 5746 5741 5743 5745 5746 5747 5748 5749 5750 5751 5750 5746 5744 5743 5740 5737 5733 5729 5725 5722 5717 5713 5707 5702 5697 5693 5689 5685 5681 5677 5674 5671 5667 5665 5662 5659 5657 5655 5654
5686 5689 5699 5727 5749 5749 5740 5739 5751 5749 5750 5752 5751 5746 5744 5752 5751 5748 5746 5742 5738 5735 5731 5726 5721 5717 5711 5706 5701 5696 5692 5689 5686 5682 5678 5674 5671 5668 5665 5662 5660 5658 5656 5654
5685 5689 5691 5722 5751 5760 5749 5734 5755 5754 5751 5748 5743 5727 5732 5749 5750 5748 5745 5742 5738 5734 5730 5724 5721 5716 5709 5704 5699 5695 5693 5690 5687 5684 5679 5675 5672 5669 5666 5663 5661 5659 5657 5655
5684 5685 5699 5734 5752 5752 5722 5728 5757 5757 5754 5749 5743 5741 5745 5748 5746 5745 5742 5739 5736 5731 5725 5722 5718 5713 5706 5701 5698 5697 5694 5691 5687 5684 5680 5677 5673 5670 5667 5664 5661 5658 5656 5655
5680 5681 5697 5745 5747 5737 5739 5754 5758 5756 5755 5752 5749 5748 5746 5744 5741 5739 5736 5733 5730 5725 5720 5718 5715 5710 5703 5698 5698 5696 5692 5689 5685 5683 5680 5678 5672 5669 5666 5663 5660 5657 5655 5654
5704 5713 5738 5748 5751 5757 5756 5754 5756 5755 5754 5752 5746 5743 5741 5738 5736 5734 5731 5728 5725 5720 5715 5712 5709 5706 5700 5698 5696 5693 5689 5685 5682 5680 5677 5674 5671 5668 5665 5662 5658 5656 5654 5652
5710 5723 5738 5747 5752 5756 5756 5756 5757 5756 5753 5750 5745 5741 5737 5734 5730 5728 5726 5723 5719 5715 5710 5706 5704 5701 5698 5696 5693 5689 5684 5681 5679 5676 5674 5671 5669 5666 5663 5660 5657 5655 5653 5651
5708 5723 5732 5740 5745 5750 5753 5754 5753 5752 5751 5748 5743 5738 5734 5730 5727 5724 5721 5718 5714 5709 5705 5701 5698 5695 5694 5692 5689 5684 5680 5677 5674 5672 5670 5667 5666 5663 5662 5660 5658 5655 5653 5651
5705 5722 5720 5730 5743 5746 5745 5746 5747 5745 5743 5742 5740 5735 5730 5725 5723 5719 5715 5711 5707 5703 5698 5695 5692 5689 5688 5686 5683 5679 5674 5671 5669 5666 5665 5663 5661 5660 5659 5657 5656 5654 5652 5650
5720 5729 5728 5734 5740 5742 5742 5743 5742 5741 5738 5734 5733 5730 5725 5719 5715 5712 5708 5704 5700 5696 5691 5688 5684 5682 5680 5679 5677 5672 5668 5665 5663 5661 5659 5657 5655 5653 5651 5652 5651 5650 5648 5647
5722 5722 5722 5727 5731 5737 5737 5737 5735 5733 5731 5729 5725 5721 5716 5711 5706 5703 5699 5696 5692 5688 5683 5679 5676 5673 5672 5671 5669 5665 5661 5659 5656 5653 5652 5650 5648 5647 5645 5643 5641 5641 5641 5640
5716 5717 5718 5723 5725 5726 5727 5725 5722 5719 5717 5715 5714 5710 5706 5701 5696 5692 5689 5686 5682 5677 5673 5670 5666 5663 5662 5661 5659 5655 5653 5650 5647 5645 5644 5642 5641 5639 5637 5635 5633 5631 5631 5631
5707 5709 5710 5710 5711 5713 5713 5713 5711 5709 5707 5705 5701 5699 5696 5691 5686 5681 5677 5674 5669 5664 5661 5659 5656 5653 5652 5650 5648 5645 5643 5643 5640 5636 5634 5633 5631 5629 5627 5624 5622 5621 5619 5619
5688 5690 5694 5696 5699 5701 5703 5705 5704 5702 5698 5695 5692 5688 5683 5677 5671 5666 5662 5660 5657 5653 5649 5647 5644 5643 5642 5640 5637 5634 5631 5630 5630 5625 5623 5621 5619 5617 5615 5612 5610 5608 5606 5606
5681 5687 5689 5691 5693 5692 5693 5694 5694 5691 5688 5685 5681 5676 5671 5666 5659 5653 5649 5645 5642 5639 5636 5634 5633 5632 5630 5628 5625 5622 5620 5617 5615 5612 5610 5608 5606 5604 5601 5599 5597 5595 5593 5593
5669 5675 5679 5683 5685 5685 5683 5682 5681 5679 5677 5673 5669 5663 5658 5653 5647 5642 5637 5632 5629 5624 5621 5622 5622 5618 5617 5615 5614 5610 5607 5605 5602 5599 5597 5595 5592 5590 5588 5585 5583 5582 5580 5579
5651 5658 5663 5667 5670 5670 5669 5668 5667 5665 5663 5659 5654 5648 5642 5637 5633 5628 5623 5617 5614 5612 5610 5609 5607 5604 5603 5602 5601 5597 5594 5591 5588 5585 5583 5580 5577 5575 5573 5572 5570 5568 5566 5564
5630 5637 5643 5647 5649 5651 5652 5652 5650 5648 5645 5643 5639 5634 5627 5621 5618 5613 5609 5602 5599 5599 5598 5597 5593 5591 5590 5588 5587 5583 5580 5577 5574 5571 5569 5566 5564 5561 5559 5557 5556 5554 5552 5550
5607 5614 5619 5623 5627 5628 5629 5631 5631 5629 5626 5623 5620 5616 5611 5605 5600 5597 5594 5590 5587 5587 5584 5581 5580 5579 5577 5575 5571 5569 5566 5564 5560 5558 5555 5553 5550 5548 5545 5543 5541 5539 5537 5535
5584 5590 5595 5600 5603 5605 5607 5608 5609 5608 5606 5604 5602 5598 5594 5590 5587 5583 5577 5574 5574 5574 5570 5568 5568 5567 5565 5561 5558 5555 5553 5550 5547 5544 5542 5540 5537 5535 5532 5529 5527 5525 5523 5520
5565 5570 5573 5577 5581 5583 5583 5584 5586 5587 5586 5584 5582 5580 5577 5572 5567 5566 5565 5564 5562 5560 5556 5555 5555 5554 5551 5546 5544 5541 5538 5536 5534 5531 5529 5527 5524 5521 5518 5516 5513 5511 5508 5506
5547 5551 5554 5557 5559 5561 5562 5564 5565 5565 5565 5563 5562 5561 5560 5558 5555 5551 5550 5549 5548 5546 5542 5542 5542 5540 5536 5533 5530 5528 5525 5523 5521 5518 5516 5513 5510 5508 5505 5502 5499 5497 5494 5491
5531 5534 5537 5540 5542 5543 5545 5546 5546 5546 5546 5545 5543 5543 5542 5541 5540 5537 5535 5534 5533 5532 5529 5527 5526 5524 5521 5519 5517 5515 5513 5510 5508 5505 5503 5500 5498 5495 5492 5489 5486 5483 5479 5476
5516 5519 5521 5524 5526 5528 5530 5531 5531 5530 5531 5530 5528 5527 5527 5525 5524 5522 5521 5520 5518 5517 5515 5513 5512 5510 5508 5506 5504 5502 5500 5497 5495 5493 5490 5487 5485 5482 5479 5476 5472 5469 5465 5462